RYR2HU EIDW-LFBH

Flight info

Callsign RYR2HU
Flight time 1h 22m
Altitude 39000
Route PESIT4E PESIT DCT BAKUR DCT GUBJE DCT GISOK DCT TACQI DCT MANIG DCT BADUR/N0412F310 DCT KORER UM616 NTS A25 LUSON
Aircraft B38M/M-SADE3FGILRWY/SB1

Departure

Time 2026-05-04 09:46
Airport Dublin Airport (EIDW)

Arrival

Time 2026-05-04 11:08
Airport La Rochelle Île de Ré Airport (LFBH)
Time Latitude Longitude Altitude Speed Heading
2026-05-04 09:02 53.43099 -6.25221 213 ft 0 kts 66°
2026-05-04 09:34 53.43055 -6.25325 213 ft 0 kts 156°
2026-05-04 09:38 53.43053 -6.25324 213 ft 1 kts 156°
2026-05-04 09:38 53.43028 -6.25305 219 ft 7 kts 156°
2026-05-04 09:38 53.42977 -6.25272 217 ft 3 kts 172°
2026-05-04 09:39 53.42965 -6.25279 217 ft 2 kts 206°
2026-05-04 09:39 53.42945 -6.25312 213 ft 6 kts 233°
2026-05-04 09:39 53.42911 -6.25377 213 ft 3 kts 225°
2026-05-04 09:39 53.42889 -6.25415 216 ft 6 kts 225°
2026-05-04 09:40 53.42851 -6.25479 214 ft 10 kts 225°
2026-05-04 09:40 53.42792 -6.25580 222 ft 16 kts 225°
2026-05-04 09:40 53.42698 -6.25731 213 ft 18 kts 212°
2026-05-04 09:40 53.42612 -6.25710 215 ft 13 kts 156°
2026-05-04 09:41 53.42530 -6.25708 215 ft 11 kts 215°
2026-05-04 09:42 53.42320 -6.27278 213 ft 22 kts 276°
2026-05-04 09:43 53.42336 -6.27553 213 ft 24 kts 275°
2026-05-04 09:43 53.42352 -6.27848 217 ft 26 kts 275°
2026-05-04 09:43 53.42368 -6.28142 213 ft 16 kts 275°
2026-05-04 09:43 53.42366 -6.28285 215 ft 10 kts 241°
2026-05-04 09:44 53.42317 -6.28323 214 ft 5 kts 177°
2026-05-04 09:44 53.42311 -6.28322 214 ft 2 kts 173°
2026-05-04 09:44 53.42295 -6.28313 214 ft 2 kts 152°
2026-05-04 09:46 53.41937 -6.21305 1959 ft 199 kts 91°
2026-05-04 09:46 53.41800 -6.18823 2630 ft 233 kts 93°
2026-05-04 09:46 53.41616 -6.15863 2967 ft 280 kts 93°
2026-05-04 09:47 53.41391 -6.12437 3682 ft 300 kts 94°
2026-05-04 09:47 53.41173 -6.09052 5363 ft 285 kts 93°
2026-05-04 09:49 53.32543 -5.99870 8985 ft 290 kts 196°
2026-05-04 09:49 53.30606 -6.00818 9088 ft 290 kts 196°
2026-05-04 09:49 53.28669 -6.01777 9113 ft 291 kts 197°
2026-05-04 09:51 53.16016 -6.07020 13971 ft 337 kts 185°
2026-05-04 09:51 53.13624 -6.07408 14696 ft 345 kts 185°
2026-05-04 09:51 53.11254 -6.07585 15474 ft 348 kts 173°
2026-05-04 09:51 53.08896 -6.06648 16272 ft 350 kts 163°
2026-05-04 09:52 53.06539 -6.05587 17104 ft 352 kts 163°
2026-05-04 09:52 53.04159 -6.04516 17848 ft 357 kts 163°
2026-05-04 09:52 53.01757 -6.03426 18583 ft 360 kts 163°
2026-05-04 09:52 52.99327 -6.02320 19219 ft 363 kts 162°
2026-05-04 09:53 52.96869 -6.01202 19839 ft 368 kts 162°
2026-05-04 09:53 52.94430 -6.00095 20448 ft 371 kts 162°
2026-05-04 09:53 52.91887 -5.98941 21072 ft 375 kts 162°
2026-05-04 09:53 52.89396 -5.97812 21656 ft 379 kts 162°
2026-05-04 09:54 52.86844 -5.96657 22247 ft 383 kts 161°
2026-05-04 09:54 52.84246 -5.95483 22841 ft 387 kts 161°
2026-05-04 09:54 52.81635 -5.94305 23063 ft 391 kts 161°
2026-05-04 09:54 52.79012 -5.93123 23064 ft 389 kts 161°
2026-05-04 09:55 52.76395 -5.91945 23070 ft 389 kts 161°
2026-05-04 09:55 52.73776 -5.90768 23073 ft 389 kts 161°
2026-05-04 09:55 52.71217 -5.89619 23066 ft 389 kts 161°
2026-05-04 09:55 52.68606 -5.88447 23068 ft 388 kts 161°
2026-05-04 09:56 52.65998 -5.87279 23065 ft 389 kts 161°
2026-05-04 09:56 52.63384 -5.86109 23063 ft 389 kts 161°
2026-05-04 09:56 52.60780 -5.84944 23089 ft 388 kts 161°
2026-05-04 09:56 52.58171 -5.83780 23074 ft 386 kts 161°
2026-05-04 09:57 52.55575 -5.82623 23069 ft 386 kts 161°
2026-05-04 09:57 52.52981 -5.81467 23068 ft 386 kts 161°
2026-05-04 09:57 52.50379 -5.80311 23066 ft 386 kts 161°
2026-05-04 09:57 52.47825 -5.79176 23064 ft 386 kts 161°
2026-05-04 09:58 52.45226 -5.78023 23061 ft 386 kts 161°
2026-05-04 09:58 52.42626 -5.76870 23059 ft 386 kts 161°
2026-05-04 09:58 52.40030 -5.75698 23091 ft 387 kts 160°
2026-05-04 10:00 52.21882 -5.66392 26395 ft 402 kts 151°
2026-05-04 10:00 52.19269 -5.64597 26831 ft 406 kts 152°
2026-05-04 10:02 52.00753 -5.51772 29798 ft 421 kts 147°
2026-05-04 10:04 51.81957 -5.36995 32108 ft 437 kts 150°
2026-05-04 10:04 51.79226 -5.34866 32412 ft 439 kts 150°
2026-05-04 10:04 51.76506 -5.32748 32707 ft 441 kts 150°
2026-05-04 10:04 51.73715 -5.30577 33021 ft 443 kts 151°
2026-05-04 10:05 51.70920 -5.28407 33314 ft 446 kts 151°
2026-05-04 10:05 51.68120 -5.26236 33612 ft 448 kts 152°
2026-05-04 10:05 51.65294 -5.24048 33862 ft 451 kts 152°
2026-05-04 10:05 51.62491 -5.21880 34141 ft 452 kts 152°
2026-05-04 10:06 51.59657 -5.19692 34448 ft 452 kts 152°
2026-05-04 10:06 51.56801 -5.17489 34756 ft 452 kts 152°
2026-05-04 10:06 51.53980 -5.15316 35058 ft 452 kts 152°
2026-05-04 10:08 51.39290 -4.96937 36737 ft 450 kts 137°
2026-05-04 10:08 51.36934 -4.93618 37002 ft 450 kts 137°
2026-05-04 10:08 51.34600 -4.90334 37274 ft 450 kts 137°
2026-05-04 10:08 51.32241 -4.87019 37515 ft 450 kts 138°
2026-05-04 10:09 51.29885 -4.83713 37763 ft 451 kts 138°
2026-05-04 10:09 51.27528 -4.80410 38000 ft 451 kts 138°
2026-05-04 10:09 51.25166 -4.77105 38229 ft 451 kts 138°
2026-05-04 10:09 51.22802 -4.73802 38458 ft 451 kts 138°
2026-05-04 10:10 51.20435 -4.70498 38674 ft 452 kts 138°
2026-05-04 10:10 51.18097 -4.67239 38851 ft 452 kts 138°
2026-05-04 10:10 51.15745 -4.63966 38987 ft 452 kts 138°
2026-05-04 10:10 51.13366 -4.60661 39022 ft 452 kts 138°
2026-05-04 10:11 51.08632 -4.54097 39012 ft 450 kts 139°
2026-05-04 10:11 51.03874 -4.47670 39002 ft 451 kts 146°
2026-05-04 10:12 50.98563 -4.42340 39006 ft 451 kts 147°
2026-05-04 10:12 50.93259 -4.37034 39013 ft 451 kts 147°
2026-05-04 10:13 50.87977 -4.31776 39005 ft 451 kts 147°
2026-05-04 10:13 50.82640 -4.26478 39006 ft 451 kts 147°
2026-05-04 10:14 50.77312 -4.21204 38999 ft 451 kts 147°
2026-05-04 10:16 50.56330 -4.00572 39005 ft 448 kts 148°
2026-05-04 10:16 50.51047 -3.95411 39007 ft 449 kts 148°
2026-05-04 10:17 50.45752 -3.90253 39006 ft 449 kts 148°
2026-05-04 10:19 50.24520 -3.69706 39011 ft 449 kts 148°
2026-05-04 10:19 50.19199 -3.64592 39005 ft 449 kts 149°
2026-05-04 10:20 50.13881 -3.59493 39013 ft 448 kts 149°
2026-05-04 10:20 50.08575 -3.54418 39017 ft 449 kts 149°
2026-05-04 10:21 50.03278 -3.49366 39014 ft 449 kts 149°
2026-05-04 10:21 49.97937 -3.44287 39015 ft 449 kts 149°
2026-05-04 10:22 49.89944 -3.36709 39016 ft 449 kts 149°
2026-05-04 10:23 49.84616 -3.31669 39016 ft 448 kts 149°
2026-05-04 10:25 49.61087 -3.20841 39015 ft 445 kts 169°
2026-05-04 10:25 49.55001 -3.19069 39015 ft 445 kts 169°
2026-05-04 10:26 49.48928 -3.17307 39014 ft 445 kts 169°
2026-05-04 10:26 49.42866 -3.15554 39010 ft 444 kts 169°
2026-05-04 10:27 49.36790 -3.13800 39013 ft 444 kts 169°
2026-05-04 10:27 49.30709 -3.12049 39014 ft 444 kts 169°
2026-05-04 10:28 49.24633 -3.10304 39003 ft 444 kts 169°
2026-05-04 10:28 49.18594 -3.08574 39009 ft 442 kts 170°
2026-05-04 10:29 49.12526 -3.06839 39012 ft 442 kts 170°
2026-05-04 10:29 49.06510 -3.05125 39012 ft 442 kts 170°
2026-05-04 10:30 49.00446 -3.03401 39006 ft 442 kts 170°
2026-05-04 10:30 48.94559 -3.01731 39007 ft 442 kts 170°
2026-05-04 10:31 48.88519 -3.00021 39009 ft 442 kts 170°
2026-05-04 10:32 48.67508 -2.93490 39012 ft 442 kts 164°
2026-05-04 10:33 48.62582 -2.91305 38995 ft 442 kts 164°
2026-05-04 10:33 48.56693 -2.88680 38993 ft 442 kts 164°
2026-05-04 10:34 48.50779 -2.86048 38996 ft 442 kts 164°
2026-05-04 10:34 48.44920 -2.83447 38995 ft 442 kts 164°
2026-05-04 10:35 48.39022 -2.80835 38985 ft 442 kts 165°
2026-05-04 10:35 48.33101 -2.78219 38989 ft 442 kts 165°
2026-05-04 10:36 48.27221 -2.75628 38990 ft 442 kts 165°
2026-05-04 10:36 48.21326 -2.73036 38986 ft 442 kts 165°
2026-05-04 10:37 48.15444 -2.70456 38979 ft 442 kts 165°
2026-05-04 10:37 48.09534 -2.67869 38983 ft 442 kts 165°
2026-05-04 10:39 47.88909 -2.58893 38787 ft 439 kts 165°
2026-05-04 10:39 47.85951 -2.57612 37743 ft 446 kts 165°
2026-05-04 10:40 47.82944 -2.56310 36795 ft 451 kts 165°
2026-05-04 10:40 47.79985 -2.55032 36297 ft 445 kts 165°
2026-05-04 10:40 47.76998 -2.53742 35537 ft 445 kts 165°
2026-05-04 10:40 47.74058 -2.52474 34830 ft 445 kts 165°
2026-05-04 10:41 47.71105 -2.51185 34247 ft 441 kts 163°
2026-05-04 10:41 47.68358 -2.49171 33592 ft 443 kts 146°
2026-05-04 10:41 47.66128 -2.46015 32977 ft 444 kts 133°
2026-05-04 10:41 47.64143 -2.42543 32501 ft 435 kts 135°
2026-05-04 10:42 47.62169 -2.39196 32050 ft 428 kts 135°
2026-05-04 10:42 47.60248 -2.35923 31587 ft 422 kts 135°
2026-05-04 10:42 47.58333 -2.32653 31090 ft 417 kts 135°
2026-05-04 10:42 47.56445 -2.29429 30606 ft 411 kts 135°
2026-05-04 10:43 47.54621 -2.26319 30181 ft 405 kts 135°
2026-05-04 10:44 47.42336 -2.05455 27142 ft 364 kts 136°
2026-05-04 10:45 47.40678 -2.02653 26791 ft 359 kts 136°
2026-05-04 10:45 47.39046 -1.99896 26420 ft 355 kts 136°
2026-05-04 10:45 47.37452 -1.97208 26046 ft 358 kts 136°
2026-05-04 10:45 47.35838 -1.94486 25670 ft 370 kts 135°
2026-05-04 10:46 47.34131 -1.91604 25240 ft 374 kts 135°
2026-05-04 10:46 47.32415 -1.88706 24835 ft 375 kts 135°
2026-05-04 10:46 47.30697 -1.85810 24509 ft 375 kts 135°
2026-05-04 10:46 47.28996 -1.82945 24138 ft 373 kts 135°
2026-05-04 10:47 47.27294 -1.80080 23747 ft 371 kts 135°
2026-05-04 10:47 47.25576 -1.77192 23336 ft 369 kts 135°
2026-05-04 10:47 47.23889 -1.74360 22898 ft 366 kts 135°
2026-05-04 10:47 47.22241 -1.71596 22520 ft 365 kts 135°
2026-05-04 10:49 47.08258 -1.58187 19834 ft 348 kts 166°
2026-05-04 10:49 47.05928 -1.57251 19477 ft 347 kts 166°
2026-05-04 10:50 47.03602 -1.56322 19120 ft 346 kts 166°
2026-05-04 10:51 46.87563 -1.49962 16569 ft 338 kts 166°
2026-05-04 10:52 46.85303 -1.49069 16218 ft 336 kts 166°
2026-05-04 10:52 46.83046 -1.48178 15869 ft 335 kts 166°
2026-05-04 10:52 46.80793 -1.47290 15520 ft 334 kts 166°
2026-05-04 10:54 46.65305 -1.41203 13029 ft 326 kts 165°
2026-05-04 10:54 46.63125 -1.40349 12682 ft 324 kts 165°
2026-05-04 10:56 46.48243 -1.33772 10255 ft 316 kts 151°
2026-05-04 10:56 46.46323 -1.32236 9914 ft 314 kts 152°
2026-05-04 10:56 46.44409 -1.30722 9561 ft 312 kts 152°
2026-05-04 10:57 46.42506 -1.29227 9210 ft 311 kts 152°
2026-05-04 10:57 46.40609 -1.27743 8862 ft 309 kts 152°
2026-05-04 10:57 46.38749 -1.26291 8524 ft 308 kts 152°
2026-05-04 10:57 46.36834 -1.24798 8150 ft 307 kts 152°
2026-05-04 10:58 46.34957 -1.23335 7837 ft 305 kts 151°
2026-05-04 10:58 46.33084 -1.21878 7508 ft 305 kts 151°
2026-05-04 10:58 46.31148 -1.20731 7160 ft 306 kts 166°
2026-05-04 10:58 46.29044 -1.20446 6829 ft 305 kts 179°
2026-05-04 10:59 46.26934 -1.20351 6499 ft 301 kts 169°
2026-05-04 10:59 46.25030 -1.19217 6120 ft 297 kts 142°
2026-05-04 10:59 46.23483 -1.17271 5822 ft 292 kts 137°
2026-05-04 10:59 46.21966 -1.15351 5518 ft 288 kts 137°
2026-05-04 11:00 46.20516 -1.13524 5241 ft 285 kts 137°
2026-05-04 11:01 46.13528 -0.97770 3876 ft 260 kts 115°
2026-05-04 11:02 46.12720 -0.95429 3704 ft 259 kts 114°
2026-05-04 11:02 46.12217 -0.92989 3589 ft 255 kts 89°
2026-05-04 11:05 46.17483 -1.10109 1524 ft 216 kts 277°
2026-05-04 11:06 46.17613 -1.12129 1264 ft 192 kts 276°
2026-05-04 11:06 46.17714 -1.13960 857 ft 174 kts 276°
2026-05-04 11:06 46.17781 -1.15632 470 ft 160 kts 275°
2026-05-04 11:06 46.17831 -1.17197 278 ft 155 kts 276°
2026-05-04 11:08 46.17942 -1.20907 82 ft 0 kts 281°
2026-05-04 11:10 46.17929 -1.19870 80 ft 32 kts 93°
2026-05-04 11:12 46.17782 -1.19497 82 ft 0 kts 182°
2026-05-04 11:12 46.17767 -1.19498 80 ft 5 kts 182°
2026-05-04 11:12 46.17713 -1.19495 81 ft 6 kts 158°
2026-05-04 11:12 46.17692 -1.19441 81 ft 7 kts 97°
2026-05-04 11:13 46.17688 -1.19353 79 ft 4 kts 93°
2026-05-04 11:13 46.17686 -1.19284 79 ft 1 kts 92°
2026-05-04 11:13 46.17683 -1.19262 79 ft 1 kts 123°
2026-05-04 11:13 46.17665 -1.19236 81 ft 7 kts 136°
2026-05-04 11:14 46.17658 -1.19230 81 ft 0 kts 166°